Location: Alta
(39.2070°N, 120.8111°W)
Time: 16:02:24
(UTC+00:00)

DUCHIFAT 1 - Visible Passes

Search period start: 18 April 2024 00:00
Search period end: 28 April 2024 00:00
Orbit: 543 x 559 km, 98.1° (Epoch: 17 April)

Date Brightness Start Highest point End Pass type
(mag) Time Alt. Az. Time Alt. Az. Time Alt. Az.
18 Apr ? 12:45:15 10° N 12:49:15 75° WNW 12:53:14 10° SSW visible
19 Apr ? 12:41:13 10° NNE 12:45:14 85° WNW 12:49:14 10° SSW visible
20 Apr ? 12:37:09 10° NNE 12:41:11 85° ESE 12:45:10 10° SSW visible
21 Apr ? 12:33:03 10° NNE 12:37:04 75° ESE 12:41:02 10° S visible
22 Apr ? 12:28:55 10° NNE 12:32:54 66° E 12:36:51 10° S visible
23 Apr ? 12:24:44 10° NNE 12:28:41 57° E 12:32:36 10° S visible
24 Apr ? 12:20:32 10° NNE 12:24:26 50° E 12:28:17 10° S visible
25 Apr ? 12:16:18 10° NNE 12:20:08 43° E 12:23:55 10° S visible
26 Apr ? 12:12:01 10° NNE 12:15:46 38° E 12:19:29 10° SSE visible
27 Apr ? 12:07:43 10° NNE 12:11:21 33° E 12:14:58 10° SSE visible
